GW1109 Weather Reports


Display with metric or nautical units.
time (UTC)temp
F
wind
direction
speed
MPH
gust
MPH
rain 1hr
in
rain 24hr
in
rain mn
in
humidity
%
barometer
mb
20260504044545 38 250 2.0 9.0 0.00 0.00 0.00 62 1008.3
20260504043055 38 259 4.0 9.0 0.00 0.00 0.00 61 1008.2
20260504041544 39 201 5.0 8.0 0.00 0.00 0.00 61 1008.1
20260504040046 39 234 3.0 9.0 0.00 0.00 0.00 61 1008.1
20260504034549 39 257 3.0 8.0 0.00 0.00 0.00 60 1008.0
20260504033048 41 264 2.0 9.0 0.00 0.00 0.00 56 1007.9
20260504031546 43 242 4.0 10.0 0.00 0.00 0.00 51 1007.8
20260504030047 43 288 3.0 8.0 0.00 0.00 0.00 51 1007.7
20260504024548 43 273 3.0 10.0 0.00 0.00 0.00 51 1007.7
20260504023049 42 284 4.0 9.0 0.00 0.00 0.00 53 1007.7
20260504021547 41 293 2.0 5.0 0.00 0.00 0.00 56 1007.7
20260504020125 41 290 0.0 4.0 0.00 0.00 0.00 56 1007.7
20260504014559 41 242 1.0 3.0 0.00 0.02 0.00 57 1007.8
20260504013055 42 271 1.0 4.0 0.00 0.02 0.00 53 1007.8
20260504011546 42 317 2.0 7.0 0.00 0.02 0.00 54 1007.6
20260504010048 42 263 2.0 7.0 0.00 0.02 0.00 54 1007.4
20260504004618 43 270 4.0 9.0 0.00 0.06 0.00 50 1007.2
20260504003051 44 257 5.0 10.0 0.00 0.06 0.00 50 1007.0
20260504001617 44 273 4.0 8.0 0.00 0.06 0.00 50 1006.9
20260504000049 45 310 4.0 10.0 0.00 0.06 0.00 47 1006.6
20260503234547 46 319 9.0 16.0 0.00 0.09 0.00 45 1006.3
20260503233049 46 284 9.0 19.0 0.00 0.09 0.00 44 1006.2
20260503231541 47 315 12.0 21.0 0.00 0.09 0.00 41 1005.9
20260503230107 47 279 7.0 18.0 0.00 0.09 0.00 42 1005.8
20260503224546 48 307 17.0 28.0 0.00 0.10 0.00 39 1005.5
20260503223045 48 310 11.0 23.0 0.00 0.10 0.00 39 1005.1
20260503221545 48 315 13.0 26.0 0.00 0.10 0.00 39 1005.2
20260503220048 49 335 10.0 21.0 0.00 0.10 0.00 41 1004.9
20260503214555 48 355 12.0 19.0 0.00 0.12 0.00 41 1004.8
20260503213047 48 311 9.0 19.0 0.00 0.12 0.00 42 1004.7
20260503211548 49 302 10.0 20.0 0.00 0.12 0.00 43 1004.6
20260503210046 49 312 9.0 19.0 0.00 0.12 0.00 44 1004.3
20260503204545 48 298 15.0 24.0 0.00 0.19 0.00 43 1004.2
20260503203102 49 328 12.0 21.0 0.00 0.19 0.00 46 1004.0
20260503201541 50 289 12.0 20.0 0.00 0.19 0.00 43 1003.9
20260503200049 50 315 8.0 20.0 0.00 0.19 0.00 45 1003.9
20260503194547 49 355 11.0 20.0 0.00 0.28 0.00 47 1004.1
20260503193045 49 300 10.0 21.0 0.00 0.28 0.00 46 1004.0
20260503191547 50 305 8.0 19.0 0.00 0.28 0.00 52 1004.2
20260503190044 50 310 10.0 19.0 0.00 0.28 0.00 51 1004.3
20260503184540 49 360 12.0 20.0 0.00 0.34 0.00 52 1004.3
20260503183047 49 285 9.0 21.0 0.00 0.34 0.00 51 1004.3
20260503181557 49 332 10.0 17.0 0.00 0.34 0.00 51 1004.3
20260503180053 48 338 9.0 16.0 0.00 0.34 0.00 54 1004.4
20260503174546 48 298 5.0 13.0 0.00 0.36 0.00 62 1004.4
20260503173044 47 355 5.0 11.0 0.00 0.36 0.00 63 1004.5
20260503171540 46 314 8.0 14.0 0.00 0.36 0.00 63 1004.5
20260503081550 49 5 1.0 3.0 0.00 0.44 0.00 100 1007.1